Flag for USA

Past Weather in Fairfield Swamp State Wildlife Management Area, Vermont, USA — Yesterday and Last 2 Weeks

Now
69 °F

Passing clouds.


Feels Like: 69 °F
Forecast: 76 / 62 °F
Wind: 3 mph from Southwest

Location: Plattsburgh International Airport

Current Time: Jul 13, 2020 at 9:22:10 pm

Latest Report: Jul 13, 2020 at 8:53 pm


Visibility: 10 mi

Pressure: 29.83 "Hg

Humidity: 87%

Dew Point: 65 °F

Location of Fairfield Swamp State Wildlife Management AreaLocation

Past Weather in Fairfield Swamp State Wildlife Management Area — Graph

°F

Fairfield Swamp State Wildlife Management Area Temperature Yesterday

Maximum temperature yesterday: 82 °F (at 3:53 pm)
Minimum temperature yesterday: 68 °F (at 9:53 pm)
Average temperature yesterday: 75 °F

High & Low Weather Summary for the Past Weeks

 TemperatureHumidityPressure
High91 °F (Jul 10, 12:53 pm)100% (Jul 1, 10:39 pm)30.10 "Hg (Jul 1, 10:39 pm)
Low53 °F (Jul 7, 4:53 am)29% (Jul 6, 3:53 pm)29.45 "Hg (Jul 12, 3:53 am)
Average73 °F78%29.85 "Hg
* Reported Jun 28 7:53 pm — Jul 13 7:53 pm, Fairfield Swamp State Wildlife Management Area. Weather by CustomWeather, © 2020

Note: Actual official high and low records may vary slightly from our data, if they occured in-between our weather recording intervals... More about our weather records

Fairfield Swamp State Wildlife Management Area Weather History for the Previous 24 Hours

Scroll right to see more
 ConditionsComfort  
Time TempWeatherWind HumidityBarometerVisibility
7:53 pm
Mon, Jul 13
73 °FPartly sunny.5 mph81%29.81 "Hg10 mi
6:53 pm78 °FSunny.No wind69%29.79 "Hg10 mi
5:53 pm77 °FPassing clouds.5 mph69%29.79 "Hg10 mi
4:53 pm75 °FOvercast.No wind76%29.79 "Hg10 mi
3:53 pm76 °FOvercast.6 mph67%29.78 "Hg10 mi
2:53 pm78 °FSunny.5 mph66%29.78 "Hg10 mi
1:53 pm76 °FScattered clouds.3 mph77%29.78 "Hg10 mi
12:53 pm74 °FPartly sunny.3 mph82%29.78 "Hg10 mi
11:53 am70 °FLight rain. Fog.No wind90%29.79 "Hg5 mi
10:53 am71 °FLight rain. Overcast.8 mph87%29.78 "Hg10 mi
9:53 am71 °FMostly cloudy.7 mph90%29.77 "Hg10 mi
9:37 am69 °FMostly cloudy.5 mph93%29.77 "Hg10 mi
9:17 am69 °FRain. Fog.3 mph93%29.77 "Hg4 mi
9:01 am68 °FLight rain. Fog.5 mph96%29.77 "Hg3 mi
7:53 am71 °FOvercast.No wind81%29.75 "Hg10 mi
7:30 am70 °FPartly sunny.No wind84%29.76 "Hg10 mi
7:08 am69 °FMostly cloudy.No wind87%29.75 "Hg10 mi
6:53 am69 °FMostly cloudy.No wind87%29.74 "Hg10 mi
5:53 am66 °FPartly sunny.3 mph96%29.74 "Hg10 mi
4:53 am65 °FClear.No wind97%29.72 "Hg10 mi
3:53 am67 °FPartly cloudy.No wind93%29.72 "Hg10 mi
2:53 am68 °FPassing clouds.No wind93%29.71 "Hg10 mi
1:53 am68 °FOvercast.No wind93%29.72 "Hg10 mi
12:53 am70 °FPassing clouds.5 mph87%29.71 "Hg10 mi
11:53 pm
Sun, Jul 12
69 °FPartly cloudy.No wind90%29.71 "Hg10 mi
10:53 pm68 °FPassing clouds.No wind90%29.70 "Hg10 mi
9:53 pm68 °FClear.No wind90%29.69 "Hg10 mi
Weather by CustomWeather, © 2020

See weather overview